COSMOS 2251 DEB

Satellite information

Favourite Embed

Satellite Type and Status

DEBRISIN ORBIT

Key statistics

Satellite COSMOS 2251 DEB at a glance.

Uptime

11710

Days in orbit

Revolutions

≈ 14.5

Per day

Orbit

LEO

Low Earth Orbit

Inclination

73.8

Latest

Satellite identification and parameters

Extended collection of information and parameters for COSMOS 2251 DEB.

Object identification

Identified? True

Debris? True

Object name: COSMOS 2251 DEB

International designator: 1993-036XN

Object number (NORAD): 34641

Object ID (CCSDS): 34641

Country: COMMONWEALTH OF INDEPENDENT STATES (CIS)

Current information (Y/N): Y

RCS size: SMALL

Orbital parameters

Period: 99.264 minutes

Inclination: 73.8384 deg

SMA: 7101.584 km

Apoapsis: 734.946 km

Periapsis: 711.951 km

RAAN: 22.0522 deg

Eccentricy: 0.001619

Argument of periapsis: 334.7415 deg

Mean anomaly: 175.9198 deg

Mean motion: 14.5067437 rev/day

Mean motion (dot): 0.00001535 rev/day2

B* drag term: 0.00039741 1/REarth

Two-line elements (TLE)

Creation date: July 8, 2025, 2:27 a.m.

Reference frame: TEME

Reference center: EARTH

Epoch: July 7, 2025, 11:30 p.m. UTC

TLE line 0: 0 COSMOS 2251 DEB

TLE line 1: 1 34641U 93036XN 25188.97984091 .00001535 00000-0 39741-3 0 9991

TLE line 2: 2 34641 73.8384 22.0522 0016190 334.7415 175.9198 14.50674370859672

Live tracking on map

Real-time ground track for satellite COSMOS 2251 DEB.

In-orbit conjunctions

A list of the most updated potential collisions computed for object COSMOS 2251 DEB.

Target Orbit TCA Probability of collision Miss distance Type
CZ-6A DEB LEO 2025-05-08 22:01:46 0.0001375077 86.0 (m) DEBRIS
SL-16 DEB LEO 2024-06-11 09:25:08 0.0001170944 212.0 (m) DEBRIS

Associated space launch

Military communications satellite. Destroyed in a collision with Iridium 33.

COSMOS 2251 DEB was lifted into orbit during the mission ‘Kosmos-3M | Strela-2M 51’, on board a Kosmos-3M space rocket.

The launch took place on June 16, 1993, 4:17 a.m. from 132/1 (132L).

For more information about the launch, click the button.

Launch to space Kosmos-3M | Strela-2M 51
Kosmos-3M | Strela-2M 51

Agency: N/A

Status: Launch Successful

Launch date: June 16, 1993, 4:17 a.m. UTC

Rocket: Kosmos-3M

Launch pad: 132/1 (132L)

Location: Plesetsk Cosmodrome, Russian Federation

...

Latest news about this satellite

There are no fresh news available about this satellite. Check back as we update our databases every day.


Newsletter sign-up

Weekly statistics, charts and insights to help you stay on top of the space industry.